Home   Weather   Arth   Past weeks

Flag for Switzerland Past Weather in Arth, Schwyz, Switzerland — Yesterday and Last 2 Weeks

Now
38 °F

Chilly.


Feels Like: 36 °F
Forecast: 28 / 32 °F
Wind: 3 mph from Southeast

Location: Altdorf

Current Time: Dec 11, 2016 at 1:12:45 pm

Latest Report: Dec 11, 2016 at 12:00 pm


Visibility: N/A

Pressure: 30.33 "Hg

Humidity: 76%

Dew Point: 31 °F

Location of ArthLocation

Past Weather in Arth — Graph

°F

Arth Temperature Yesterday

Maximum temperature yesterday: 42 °F (at 1:00 pm)
Minimum temperature yesterday: 26 °F (at 6:00 am)
Average temperature yesterday: 31 °F

High & Low Weather Summary for the Past Weeks

 TemperatureHumidityPressure
High48 °F (Nov 26, 2:00 pm)100% (Dec 5, 7:00 am)30.71 "Hg (Dec 5, 7:00 am)
Low20 °F (Dec 4, 5:00 am)63% (Nov 28, 8:00 pm)30.00 "Hg (Nov 27, 1:00 pm)
Average33 °F86%30.38 "Hg
* Reported Nov 26 11:00 am — Dec 11 11:00 am, Arth, Weather by CustomWeather, © 2016

Note: Actual official high and low records may vary slightly from our data, if they occured in-between our weather recording intervals... More about our weather records

Advertising

Arth Weather History for the Previous 24 Hours

Scroll right to see more
 ConditionsComfort  
Time TempWeatherWind HumidityBarometerVisibility
11:00 am
Sun, Dec 11
34 °FChilly.5 mph86%30.38 "HgN/A
7:00 am30 °FClear.3 mph90%30.39 "Hg12 mi
6:00 am26 °FChilly.3 mph94%30.39 "HgN/A
4:00 am27 °FClear.2 mph94%30.32 "Hg16 mi
3:00 am29 °FChilly.1 mph92%30.33 "HgN/A
2:00 am30 °FChilly.3 mph92%30.35 "HgN/A
1:00 am27 °FClear.5 mph92%30.37 "Hg16 mi
12:00 am27 °FChilly.3 mph94%30.36 "HgN/A
11:00 pm
Sat, Dec 10
31 °FChilly.1 mph90%30.35 "HgN/A
10:00 pm28 °FClear.5 mph93%30.37 "Hg16 mi
9:00 pm27 °FChilly.2 mph96%30.40 "HgN/A
8:00 pm29 °FChilly.3 mph91%30.39 "HgN/A
7:00 pm31 °FClear.2 mph91%30.39 "Hg16 mi
6:00 pm31 °FChilly.1 mph92%30.40 "HgN/A
5:00 pm35 °FChilly.1 mph86%30.40 "HgN/A
4:00 pm35 °FSunny.3 mph84%30.40 "Hg16 mi
3:00 pm36 °FChilly.2 mph81%30.40 "HgN/A
2:00 pm40 °FChilly.2 mph77%30.39 "HgN/A
1:00 pm42 °FSunny.6 mph77%30.39 "Hg16 mi
Weather by CustomWeather, © 2016

See weather overviewHow to use our weather pages